Temp
60 60 60 60 60 60 60 60 60 60 60 60 60 60 60 60 60 65 62 70 74 71 67 76 77 78 83 79 84 87 71 69 73 76 82 94 91 98 101 97 98 99 90 89 99
60 60 60 60 60 60 60 60 60 60 60 60 60 60 60 60 61 61 72 73 73 72 73 72 71 75 73 76 79 77 70 71 82 86 85 91 94 94 92 93 93 93 87 80 90
59 59 60 60 60 59 59 59 59 60 60 60 60 60 60 61 57 66 70 70 70 73 75 74 74 75 72 76 76 76 71 78 82 88 91 91 92 97 91 87 93 90 90 84 83
59 59 59 59 59 59 59 59 59 60 60 60 60 59 59 61 48 69 70 70 69 74 73 71 69 65 67 68 77 71 78 80 84 88 89 88 94 93 93 92 98 97 94 93 92
58 59 59 59 59 59 58 58 59 59 59 59 59 59 59 55 57 76 72 71 75 73 70 68 65 66 64 71 75 73 77 81 85 87 89 91 89 90 90 96 99 95 92 92 91
58 58 58 58 58 58 58 58 58 58 58 58 59 59 54 46 73 79 78 77 76 74 72 72 69 72 69 70 72 77 78 81 83 83 86 85 86 89 91 97 94 95 91 92 92
57 57 58 58 58 58 58 57 57 57 58 59 60 59 51 53 75 77 77 76 77 74 70 74 75 68 71 69 78 78 73 78 80 82 82 86 79 81 92 94 91 91 91 92 92
58 57 57 57 58 58 58 57 57 58 59 60 60 56 45 68 74 71 73 73 77 77 74 73 71 67 70 75 73 71 73 66 77 81 82 81 69 82 90 90 88 90 90 91 91
57 57 57 57 57 57 57 56 57 58 59 61 57 52 47 72 64 71 73 69 72 73 74 73 68 64 67 61 62 67 60 64 70 80 80 77 71 82 89 87 86 88 89 90 91
57 57 56 56 57 56 56 56 59 61 63 65 63 49 58 59 71 74 76 72 67 68 64 62 60 54 57 58 51 59 61 65 66 74 77 73 73 81 86 86 85 86 88 89 89
57 56 56 56 56 56 57 66 63 54 57 55 57 57 64 72 73 69 74 67 67 62 51 58 46 44 55 62 65 66 64 64 70 77 73 72 73 78 83 85 84 84 86 87 88
56 56 56 56 55 55 58 55 59 62 48 62 62 63 68 70 61 66 71 57 56 51 57 51 45 55 61 65 64 65 64 63 71 76 74 71 71 77 82 82 83 84 85 87 88
55 55 56 55 55 56 62 60 69 65 46 57 66 64 66 68 60 61 66 61 51 49 53 46 52 59 58 57 60 62 63 65 65 72 75 71 67 72 79 83 85 86 87 88 87
55 55 55 54 55 69 60 66 69 64 38 52 59 62 66 65 56 69 69 61 56 51 55 53 59 57 55 56 61 56 68 70 67 66 59 72 55 67 74 76 80 82 85 87 88
55 55 55 54 62 60 62 68 66 59 29 57 59 72 66 59 57 53 66 63 49 53 54 51 56 55 53 57 63 61 70 69 68 66 65 64 60 66 74 71 75 79 84 87 88
55 55 54 61 65 66 67 62 59 36 30 48 59 55 54 58 58 58 58 65 64 54 53 50 61 62 61 64 65 70 67 68 69 66 53 61 60 63 68 72 75 80 84 86 88
55 54 55 69 64 72 66 56 37 33 49 43 48 54 51 47 49 52 50 46 48 42 42 51 50 61 62 58 64 65 61 50 48 50 49 65 60 65 74 78 80 79 83 86 89
53 52 63 72 77 69 58 45 35 43 39 49 49 48 44 50 42 46 44 45 55 52 46 43 35 53 60 57 58 60 61 52 41 46 52 65 56 64 80 83 84 84 85 87 87
53 73 71 77 77 69 56 40 36 35 39 36 41 43 46 48 43 39 44 48 55 49 40 42 45 59 59 62 59 60 57 68 58 60 55 60 66 74 81 80 82 82 82 82 84
61 69 71 80 78 65 47 40 40 44 42 37 35 46 40 42 37 37 41 52 53 57 53 52 43 54 58 61 64 64 70 56 60 45 44 56 59 62 70 74 79 80 80 82 84
65 63 75 81 77 61 40 43 43 50 46 35 36 38 45 43 37 43 47 55 58 53 58 54 42 46 55 53 56 61 60 64 63 60 48 46 57 71 71 75 75 79 82 83 85
62 62 77 80 59 55 43 49 49 47 49 41 38 37 40 44 44 38 45 52 62 54 52 54 44 40 48 62 69 67 64 64 54 50 57 58 55 77 76 77 78 74 77 79 79
61 70 78 75 45 47 52 52 54 46 45 42 38 41 44 42 39 46 52 60 63 61 54 53 44 37 43 52 62 61 65 64 63 58 53 50 56 76 73 70 69 68 72 73 75
64 58 65 68 62 53 48 49 47 51 46 46 43 44 41 41 48 49 55 60 63 56 53 53 47 40 43 49 58 56 62 65 61 52 55 60 56 60 62 62 65 67 70 71 73
65 57 57 52 55 54 56 53 46 43 48 48 43 42 42 39 40 47 55 57 56 53 53 52 44 46 58 61 62 61 62 64 61 64 57 60 59 59 61 63 65 69 71 71 71
55 53 57 54 60 58 54 51 47 48 45 42 40 43 45 42 41 44 55 54 52 53 50 49 46 51 53 62 62 60 64 67 67 68 64 64 57 63 64 66 65 67 70 69 69
60 61 55 53 59 55 53 54 51 52 52 49 46 44 43 48 51 51 58 56 53 50 49 43 45 46 47 59 59 53 63 65 66 70 67 55 55 62 61 63 66 66 67 67 68
MSLP
1019.58 1019.09 1018.71 1018.33 1017.94 1017.63 1017.30 1016.94 1016.63 1016.24 1015.84 1015.62 1015.32 1015.00 1014.61 1014.22 1013.68 1012.37 1010.64 1009.20 1008.75 1009.27 1009.38 1008.68 1008.08 1007.21 1006.21 1005.48 1004.41 1003.64 1002.21 999.77 998.52 997.93 996.41 995.31 994.98 994.99 995.94 995.77 996.33 997.40 999.11 1000.32 1000.35
1019.51 1019.06 1018.60 1018.25 1017.88 1017.48 1017.02 1016.62 1016.38 1016.17 1015.81 1015.38 1015.18 1014.85 1014.49 1014.05 1013.02 1010.69 1008.71 1008.28 1008.34 1008.80 1008.91 1008.10 1007.24 1006.63 1005.66 1004.51 1003.83 1002.39 1000.90 998.71 998.88 997.53 996.48 995.30 994.49 994.48 995.88 996.08 996.61 998.21 1000.82 1001.75 1000.70
1019.47 1018.94 1018.48 1017.97 1017.56 1017.18 1016.87 1016.42 1016.00 1015.62 1015.41 1015.16 1014.90 1014.80 1014.47 1013.96 1011.95 1008.06 1008.04 1007.69 1007.60 1008.23 1008.43 1008.09 1007.25 1005.90 1004.64 1003.89 1002.88 1001.72 999.40 1000.05 998.64 997.51 996.53 995.53 994.56 994.25 995.35 996.22 996.63 998.19 1000.53 1002.58 1004.10
1019.31 1018.69 1018.21 1017.73 1017.27 1016.79 1016.29 1016.01 1015.65 1015.26 1014.94 1014.69 1014.68 1014.50 1014.40 1013.68 1010.15 1007.75 1007.96 1007.82 1008.10 1008.08 1008.08 1007.66 1007.24 1005.94 1004.13 1002.66 1002.20 1001.17 1000.33 999.62 998.81 997.78 996.80 995.79 994.97 994.56 995.00 996.07 996.92 997.91 999.76 1001.43 1002.07
1019.09 1018.53 1017.94 1017.43 1016.89 1016.38 1015.93 1015.55 1015.26 1014.92 1014.72 1014.41 1014.41 1014.33 1013.80 1011.90 1008.70 1007.64 1007.80 1008.06 1007.69 1007.71 1007.29 1006.91 1006.38 1005.57 1003.58 1002.41 1001.83 1000.38 999.83 999.61 998.83 997.90 997.00 996.25 995.47 995.43 995.64 996.75 997.25 998.13 999.88 1001.12 1001.67
1018.78 1018.25 1017.70 1017.04 1016.43 1015.84 1015.42 1014.98 1014.62 1014.35 1014.19 1014.09 1013.96 1014.04 1013.34 1010.76 1007.62 1006.96 1006.87 1006.92 1007.10 1006.71 1006.25 1006.09 1005.57 1005.13 1003.72 1002.23 1000.80 1000.34 999.77 998.90 998.83 998.24 997.39 996.64 996.42 996.35 996.16 996.79 997.35 997.99 999.50 1000.02 1001.19
1018.37 1017.81 1017.25 1016.60 1016.00 1015.33 1014.78 1014.42 1014.06 1013.76 1013.45 1013.45 1013.35 1013.27 1012.29 1009.12 1007.35 1006.83 1006.63 1006.17 1006.12 1006.29 1006.01 1005.95 1005.50 1005.13 1003.95 1001.92 1000.83 1000.03 999.41 998.91 998.19 998.14 997.67 997.46 997.38 996.71 996.64 997.02 997.68 998.82 999.37 999.93 1000.50
1018.12 1017.46 1016.78 1016.02 1015.36 1014.67 1014.03 1013.54 1013.29 1013.00 1012.66 1012.62 1012.64 1012.57 1010.90 1008.47 1007.61 1007.39 1007.10 1006.42 1005.88 1005.77 1005.82 1006.28 1006.47 1005.39 1003.25 1002.41 1000.86 999.91 999.09 998.09 997.94 997.76 997.92 998.24 997.61 997.57 997.43 997.64 998.01 998.81 999.52 1000.03 1000.38
1017.75 1017.03 1016.36 1015.54 1014.82 1014.04 1013.40 1012.61 1012.28 1012.15 1011.96 1011.97 1012.03 1011.74 1009.40 1006.70 1007.16 1006.58 1006.59 1006.02 1005.93 1005.96 1005.97 1006.49 1006.39 1005.03 1003.69 1002.11 1000.64 999.20 997.88 997.32 997.55 997.79 997.78 998.00 998.04 997.94 997.91 998.18 998.40 998.79 999.54 999.82 1000.33
1017.42 1016.60 1015.72 1014.96 1014.28 1013.69 1012.80 1011.62 1010.55 1011.34 1011.01 1010.92 1010.69 1010.78 1008.04 1006.17 1005.06 1004.89 1005.29 1005.67 1005.65 1005.70 1006.03 1006.40 1005.99 1005.05 1003.73 1001.77 999.16 997.68 997.29 997.19 996.88 997.23 997.56 997.93 998.21 997.90 997.87 998.17 998.59 999.13 999.60 999.68 1000.32
1017.00 1016.11 1015.27 1014.40 1013.73 1013.31 1012.54 1009.88 1009.69 1010.33 1010.03 1008.58 1007.84 1007.23 1005.75 1004.71 1005.21 1005.02 1004.86 1005.39 1005.34 1005.61 1005.43 1005.72 1006.10 1004.19 1002.68 1000.65 999.50 998.09 997.73 996.84 997.14 996.89 997.53 997.74 998.06 997.78 997.58 998.07 998.54 999.19 999.29 999.59 1000.25
1016.51 1015.58 1014.66 1013.80 1013.11 1012.88 1012.64 1011.00 1010.31 1010.53 1008.93 1007.50 1006.50 1005.85 1005.31 1005.18 1004.61 1004.39 1005.18 1005.66 1005.51 1004.96 1005.02 1005.69 1004.73 1004.14 1002.99 1000.99 999.91 998.37 997.33 997.26 996.90 996.82 997.26 997.92 997.82 998.21 997.48 997.78 998.63 998.90 999.11 999.47 1000.12
1016.11 1015.10 1014.16 1013.03 1012.46 1012.05 1011.13 1010.75 1010.08 1010.50 1009.51 1005.68 1003.90 1003.87 1003.81 1004.43 1004.48 1004.17 1004.88 1005.00 1005.59 1004.90 1004.39 1004.89 1003.93 1004.02 1002.57 1001.36 999.76 998.29 996.86 996.50 996.37 996.49 996.90 997.77 998.07 998.01 997.58 997.69 998.28 998.75 998.95 999.47 1000.01
1015.69 1014.68 1013.58 1012.36 1012.54 1010.59 1010.65 1010.58 1010.50 1010.78 1009.24 1004.89 1003.51 1003.17 1003.28 1004.10 1004.16 1004.17 1004.42 1004.93 1004.54 1003.96 1003.83 1003.49 1003.30 1002.76 1002.17 1000.73 999.70 998.07 996.95 996.15 996.23 996.14 995.90 997.16 997.30 997.64 997.56 997.60 998.15 998.50 998.68 999.24 999.92
1015.34 1014.19 1013.06 1013.28 1011.85 1010.83 1011.02 1010.60 1010.80 1010.61 1008.12 1004.32 1003.33 1003.05 1003.44 1004.06 1004.34 1005.25 1004.85 1004.36 1004.40 1003.70 1003.62 1002.83 1001.88 1001.86 1001.12 1000.29 999.40 997.75 996.88 996.19 996.24 996.29 996.52 997.28 997.25 996.84 997.46 997.31 997.82 998.37 998.54 998.93 999.65
1014.74 1013.75 1012.84 1011.50 1011.22 1010.66 1010.66 1011.03 1010.88 1010.29 1007.31 1005.01 1003.64 1003.65 1003.68 1003.84 1004.07 1004.66 1004.80 1004.47 1003.69 1003.85 1003.97 1003.78 1002.17 1001.22 1000.42 1000.08 999.24 997.91 996.87 996.21 996.13 996.27 996.71 996.87 996.91 995.43 995.40 996.13 997.35 998.05 998.44 998.77 999.39
1013.93 1013.14 1012.61 1010.94 1010.02 1010.27 1010.91 1010.86 1010.31 1009.33 1008.15 1006.82 1005.15 1004.21 1004.16 1004.36 1004.55 1004.57 1004.40 1004.63 1003.34 1003.38 1003.64 1002.90 1002.63 1001.44 1000.98 999.98 999.18 997.66 996.72 996.29 995.97 995.81 996.34 996.47 996.82 994.28 994.12 995.34 996.16 997.35 998.00 998.58 999.15
1013.28 1012.42 1010.99 1010.09 1009.52 1010.35 1010.70 1010.54 1009.83 1009.37 1009.05 1008.04 1006.49 1005.42 1004.31 1004.05 1005.14 1005.06 1004.75 1003.67 1002.85 1002.66 1003.06 1001.96 1002.72 1001.05 1000.69 999.96 998.47 997.31 996.90 995.63 995.41 995.55 995.84 995.76 995.15 994.31 992.99 994.49 995.75 996.92 997.67 998.37 999.09
1012.49 1010.00 1009.64 1008.79 1008.99 1009.81 1009.81 1009.96 1010.82 1010.82 1010.35 1009.51 1007.32 1005.33 1004.21 1003.85 1005.07 1005.26 1004.53 1003.18 1002.09 1003.42 1003.90 1002.38 1001.47 1001.27 1001.19 1000.25 999.22 997.37 996.43 995.87 995.71 996.08 995.86 995.33 994.99 994.41 993.42 994.21 995.37 996.58 997.76 998.73 999.74
1012.70 1009.86 1008.77 1008.28 1008.29 1009.35 1009.95 1010.30 1010.48 1010.64 1010.27 1010.40 1008.86 1006.40 1005.33 1004.79 1005.26 1005.07 1004.21 1002.83 1001.79 1002.02 1003.46 1001.91 1001.37 1001.37 1000.75 1000.39 998.82 997.13 996.09 995.41 995.36 995.44 995.16 994.61 994.52 994.07 994.32 994.68 995.53 996.50 997.64 998.75 999.81
1011.19 1009.18 1008.28 1007.79 1007.54 1008.77 1009.76 1010.10 1010.19 1010.13 1010.04 1010.62 1009.61 1008.25 1006.44 1005.14 1005.17 1004.06 1002.62 1001.46 1001.32 1002.32 1002.60 1002.62 1003.21 1001.95 1001.41 999.49 997.61 996.29 995.66 995.27 995.55 995.40 995.13 994.79 994.76 994.63 995.37 995.85 996.33 997.12 998.08 999.05 999.99
1011.36 1007.87 1008.11 1007.76 1007.93 1009.03 1009.60 1009.62 1009.77 1009.71 1009.65 1010.29 1010.22 1009.31 1007.57 1005.75 1004.13 1003.90 1002.17 1001.05 1000.92 1002.40 1001.99 1002.80 1002.30 1001.76 1000.54 998.95 997.39 996.11 995.24 995.25 995.39 995.84 995.54 995.60 995.10 995.19 996.21 997.07 997.80 999.04 999.81 1000.63 1001.60
1011.84 1008.21 1007.73 1007.60 1008.74 1009.23 1009.38 1009.26 1009.09 1009.34 1009.54 1009.79 1009.66 1009.08 1007.69 1006.21 1004.93 1003.20 1001.26 1000.91 1000.82 1000.95 1001.69 1003.01 1003.04 1002.15 1001.34 1000.24 997.61 996.12 995.61 996.00 995.68 996.17 996.17 995.97 997.03 996.76 997.77 998.85 1000.17 1001.11 1002.03 1002.94 1003.55
1012.04 1009.67 1009.14 1008.47 1009.09 1009.56 1009.23 1008.86 1008.83 1009.41 1009.52 1009.71 1009.30 1008.44 1007.64 1006.27 1004.76 1002.67 1000.86 1000.71 1001.17 1002.15 1003.07 1003.28 1002.75 1002.65 999.74 998.34 997.10 996.54 995.94 996.13 996.42 996.18 995.57 996.48 998.09 999.49 1000.28 1000.89 1001.98 1002.87 1003.55 1004.45 1005.04
1013.05 1012.22 1012.63 1010.37 1009.45 1009.37 1008.98 1008.88 1009.00 1008.74 1009.27 1009.13 1008.61 1008.18 1007.05 1006.19 1004.86 1003.04 1001.65 1001.29 1002.34 1003.34 1003.94 1004.17 1003.45 1002.58 999.63 998.28 997.22 996.75 996.35 995.78 995.56 994.93 995.72 996.34 998.29 1000.41 1001.56 1002.25 1003.05 1003.51 1004.37 1005.20 1005.87
1015.20 1014.68 1013.56 1011.86 1009.75 1008.78 1008.89 1008.64 1008.79 1008.56 1008.88 1008.47 1008.29 1007.63 1006.66 1005.84 1005.03 1003.80 1001.88 1001.74 1002.35 1003.26 1004.32 1004.85 1003.20 1001.31 999.78 998.26 997.41 996.44 995.58 995.08 994.66 994.41 995.92 997.90 999.84 1001.34 1002.47 1003.50 1004.02 1004.54 1005.01 1005.68 1006.49
1017.21 1016.32 1014.86 1012.00 1010.15 1009.24 1009.06 1008.35 1008.40 1008.45 1008.22 1008.23 1007.88 1007.21 1006.30 1005.77 1004.81 1003.71 1002.84 1002.75 1002.80 1003.01 1003.17 1004.32 1003.38 1000.86 999.65 998.24 997.17 996.08 995.02 994.83 995.06 994.56 996.35 998.43 1001.25 1002.71 1003.57 1004.29 1004.58 1005.25 1005.97 1006.77 1007.77
Wind_Speed
19 19 19 18 17 17 18 17 17 16 16 17 18 17 18 18 20 21 23 18 14 3 4 14 15 15 17 20 23 22 18 21 29 28 23 19 24 15 15 16 10 6 14 10 20
19 20 19 19 18 18 19 18 17 18 16 17 16 17 18 18 21 25 24 25 23 10 15 14 16 18 17 18 21 23 19 30 22 23 23 25 21 23 18 17 14 12 21 20 16
20 19 19 19 19 18 19 19 18 18 17 16 15 15 17 18 20 4 7 5 8 15 17 19 19 21 23 22 25 26 27 22 25 25 23 24 23 19 19 18 11 16 17 31 25
20 20 20 21 21 20 20 20 19 19 18 16 15 13 15 15 6 6 11 13 5 9 16 18 18 21 23 27 26 29 29 27 24 24 23 22 23 17 17 15 13 10 22 17 17
21 21 21 21 22 20 20 20 20 19 18 17 16 13 11 12 18 16 4 8 6 9 16 17 21 21 25 23 26 30 26 27 27 22 24 19 18 18 16 14 12 20 17 14 11
21 22 22 23 22 21 20 19 18 18 18 18 16 12 14 22 13 16 14 14 17 13 13 15 18 20 21 26 28 26 25 24 25 25 23 17 15 14 14 15 12 13 17 19 16
20 21 21 22 23 22 21 21 19 18 18 18 16 11 13 25 14 20 18 14 14 18 18 14 12 21 23 23 25 25 26 25 23 26 25 11 18 17 15 16 13 12 10 7 13
23 22 23 22 23 23 22 22 21 20 20 18 16 10 10 15 16 22 20 22 7 9 13 11 13 22 29 22 24 26 28 23 27 21 25 15 23 21 17 14 15 17 12 14 14
24 24 24 24 25 24 23 24 25 21 15 12 7 8 11 13 16 17 18 19 19 13 9 13 12 14 17 21 22 24 22 29 27 25 21 20 21 23 21 18 16 13 15 16 11
25 25 25 24 25 23 22 27 22 8 9 8 6 6 10 12 9 8 11 14 16 16 16 11 9 10 15 19 21 29 29 29 25 29 23 24 21 20 22 21 17 14 17 16 14
27 27 27 25 23 19 16 12 2 7 8 11 7 14 19 5 1 7 10 3 12 16 20 17 9 15 25 27 27 23 25 26 24 23 24 23 23 16 16 20 19 17 17 15 15
28 28 27 26 23 17 9 4 9 8 14 18 25 28 25 14 15 9 8 7 11 19 20 19 19 20 25 24 26 27 26 23 21 23 24 23 22 20 19 19 19 18 16 15 14
28 28 28 27 22 8 4 7 10 11 7 13 14 14 13 17 15 7 7 9 13 18 19 20 19 22 24 24 26 27 24 23 27 24 24 21 22 24 22 21 20 19 16 15 15
29 29 27 27 7 11 5 10 9 7 5 5 6 1 6 7 17 15 11 10 14 14 20 24 24 25 24 24 26 24 26 23 26 22 17 22 14 18 22 17 17 18 17 17 16
29 29 27 14 10 5 6 8 8 2 3 2 7 5 4 12 3 7 13 16 13 11 6 18 21 22 24 22 26 23 25 21 25 20 16 21 15 20 21 22 19 20 17 17 15
29 28 23 5 6 1 5 4 4 2 3 10 2 4 7 12 15 3 8 17 17 22 5 18 23 20 24 22 25 27 25 17 20 15 13 18 19 16 25 23 21 19 19 17 17
31 27 16 9 6 9 6 4 3 3 12 9 14 17 11 8 7 11 11 17 17 15 11 18 12 20 17 21 24 26 18 13 13 11 14 20 22 17 29 27 23 21 20 19 16
34 27 10 10 4 3 2 3 4 9 6 14 17 20 16 10 7 9 7 14 23 15 10 13 3 16 17 25 21 23 19 12 21 17 17 20 14 20 19 25 22 20 18 16 12
31 6 5 5 4 4 8 5 6 5 7 8 19 5 9 4 5 8 15 14 17 17 8 8 12 13 11 18 26 26 20 21 17 16 13 16 17 14 12 22 22 22 17 15 13
10 7 6 15 2 1 3 8 9 7 6 2 5 8 13 7 8 10 11 13 20 18 16 10 11 12 17 17 25 23 24 22 13 17 10 13 17 11 15 15 18 20 19 17 15
5 6 8 12 3 9 6 9 11 14 12 3 5 9 11 11 5 5 15 6 15 15 13 4 0 9 15 13 20 18 19 14 9 11 4 7 12 16 15 11 13 14 14 15 14
7 5 7 8 9 9 7 15 11 14 10 4 4 5 6 16 7 7 8 10 15 20 14 5 0 9 23 18 21 24 19 19 6 8 11 10 6 17 17 15 12 20 16 16 18
11 6 8 6 6 10 12 14 18 16 12 1 4 6 10 9 6 9 8 9 15 10 8 6 5 8 13 15 21 22 17 18 10 6 5 10 11 13 20 23 21 19 17 15 15
7 8 7 9 6 14 15 15 21 11 7 9 6 9 5 5 5 6 10 14 11 12 14 4 3 5 13 19 20 19 17 19 5 6 13 16 22 17 17 20 18 18 17 16 16
8 6 9 8 12 15 15 19 23 15 5 9 5 15 10 2 4 2 4 11 11 9 6 4 4 19 14 21 22 17 23 16 19 20 14 23 25 17 15 16 18 18 18 19 18
8 7 8 14 15 17 17 19 20 23 6 12 9 18 10 6 2 9 9 6 5 7 6 4 6 11 18 19 21 22 24 17 12 7 24 22 22 18 18 16 13 17 18 17 19
7 10 6 12 13 13 16 21 19 17 7 6 10 9 8 12 18 14 7 5 4 5 2 2 7 13 18 20 19 18 20 10 4 2 19 21 16 21 19 13 16 19 18 18 19
Wind_Direction
344 344 342 338 337 331 327 323 321 320 320 318 318 317 316 308 306 276 263 249 260 267 320 263 265 274 245 235 239 225 235 233 228 226 246 233 234 206 222 225 137 138 62 30 133
343 338 336 335 331 325 323 320 317 317 315 314 317 316 315 317 294 277 269 258 259 211 261 252 243 240 233 223 233 226 229 234 235 240 236 252 248 186 190 235 147 118 94 49 338
337 335 332 329 322 317 314 312 311 308 306 309 310 315 313 312 292 256 21 348 271 213 239 256 265 263 228 226 217 226 234 230 245 246 252 250 252 172 178 210 217 158 131 150 190
334 331 327 322 319 315 311 308 307 303 302 301 302 304 307 295 272 122 94 94 103 244 237 237 241 247 244 224 225 227 230 239 232 251 253 260 251 243 200 204 196 211 155 162 172
328 325 322 320 316 312 309 305 302 301 300 296 290 289 296 244 246 256 177 167 225 215 218 218 233 232 237 235 225 230 231 228 246 250 251 249 251 264 176 228 215 117 136 161 173
325 322 320 318 314 310 306 299 294 293 292 286 278 274 260 266 268 267 239 246 253 250 232 255 237 241 255 240 228 225 229 233 225 245 258 236 240 261 182 203 136 160 158 162 168
323 319 318 315 314 311 307 301 294 291 290 283 274 254 261 252 293 309 294 263 261 238 252 249 275 277 234 244 238 232 225 228 230 219 239 219 232 238 212 191 166 194 177 187 175
327 323 318 316 312 310 306 301 295 291 286 278 267 252 259 272 263 256 259 279 238 259 242 271 296 282 234 236 248 228 233 216 216 221 223 189 220 224 230 215 221 183 189 198 193
327 325 319 315 313 309 306 297 291 284 274 268 240 214 266 261 229 242 252 254 249 265 204 240 267 261 248 237 230 215 213 220 207 217 210 198 220 214 215 215 214 192 200 201 176
327 325 318 316 312 310 307 293 273 255 224 182 245 201 236 270 278 233 221 216 245 217 222 201 257 231 233 215 212 200 213 209 217 195 212 203 220 232 206 205 212 198 213 193 176
327 325 322 319 316 316 313 309 12 169 221 234 238 246 299 215 172 234 209 303 226 231 217 229 222 214 214 215 219 210 208 212 205 200 200 213 206 221 221 201 204 200 210 195 174
327 327 324 321 316 310 288 300 14 339 292 255 250 254 245 256 285 215 211 192 235 218 216 217 216 236 223 222 224 226 205 213 214 223 188 201 211 218 235 181 208 198 207 203 176
327 328 326 318 315 281 254 360 7 359 269 298 245 236 235 223 247 231 244 223 262 229 214 218 229 219 232 240 220 226 222 193 217 200 179 191 217 198 235 182 207 195 204 199 192
328 329 323 322 286 348 62 353 15 307 288 224 176 95 188 216 235 247 209 234 247 225 215 224 220 203 223 226 221 218 228 202 210 187 186 186 197 214 219 182 201 207 211 188 198
329 325 319 317 312 320 346 354 340 181 267 2 131 115 171 216 90 328 287 227 262 265 243 235 204 219 216 216 224 218 220 221 202 210 171 188 229 189 212 188 198 210 210 198 191
329 325 326 129 237 293 355 36 237 221 340 345 95 275 214 223 237 196 229 244 229 243 244 274 275 213 218 222 233 215 216 219 197 189 195 188 218 220 192 200 185 196 207 204 190
329 323 311 323 2 32 10 306 207 357 333 338 332 313 260 237 251 231 245 226 226 224 221 250 248 195 245 216 213 225 207 192 192 175 195 205 197 246 182 191 192 191 198 199 198
326 315 264 268 60 27 37 306 342 351 297 321 310 306 279 253 208 227 249 244 210 233 286 206 197 194 226 234 204 221 204 192 170 184 191 206 190 225 241 177 187 183 194 187 179
314 228 236 14 16 55 325 335 1 324 303 300 308 284 290 214 140 195 220 231 206 138 237 217 177 189 212 212 247 193 207 194 184 188 181 202 195 218 130 163 177 168 176 182 187
314 297 43 320 45 143 306 324 342 307 275 280 285 321 319 18 199 186 198 230 247 167 196 268 167 200 213 236 233 208 210 199 200 185 199 176 183 155 150 159 170 173 174 170 175
246 200 46 326 300 9 348 324 312 315 336 186 295 306 318 343 233 222 176 199 225 146 210 268 51 210 211 218 200 196 215 222 209 233 170 142 183 138 139 145 135 136 135 138 154
304 16 38 351 18 357 328 329 329 334 347 196 273 261 280 321 354 198 233 215 188 186 206 129 162 168 199 222 217 211 201 207 207 260 171 185 130 131 141 151 142 95 83 93 92
304 16 70 8 11 344 343 339 351 350 348 335 274 236 289 306 309 124 211 209 174 211 139 179 125 161 209 247 237 211 192 215 245 273 150 110 141 119 91 87 98 105 100 98 113
290 4 3 328 1 349 325 353 349 9 332 330 288 285 290 308 305 336 84 142 193 81 69 41 47 230 173 189 201 201 193 214 187 261 151 162 121 103 103 107 112 121 127 135 118
7 20 13 308 328 317 344 356 346 354 336 345 306 331 333 310 284 232 159 127 104 143 82 57 214 224 187 172 183 193 193 187 215 228 176 145 137 130 127 129 134 137 135 136 145
353 3 326 292 303 1 357 352 358 352 347 328 328 331 333 349 323 320 153 181 187 169 137 138 262 233 173 182 188 194 201 200 224 225 138 168 122 126 124 135 147 140 136 133 116
3 336 324 286 337 356 351 344 4 354 340 320 9 339 342 347 320 311 32 74 42 330 191 183 242 164 173 187 205 204 189 190 224 280 153 120 128 134 134 150 133 132 124 120 115